Location: Newark
(59.1754°N, 2.9845°W)
Time: 10:56:06
(UTC+00:00)

Envisat - Visible Passes

Search period start: 17 October 2019 00:00
Search period end: 27 October 2019 00:00
Orbit: 764 x 766 km, 98.1° (Epoch: 17 October)

Date Brightness Start Highest point End Pass type
(mag) Time Alt. Az. Time Alt. Az. Time Alt. Az.
17 Oct 3.0 17:46:33 10° SSE 17:51:40 86° ENE 17:56:47 10° NNW visible
17 Oct 5.5 19:27:27 10° SW 19:31:22 22° W 19:35:18 10° NW visible
18 Oct 6.1 05:46:50 10° NE 05:50:05 17° E 05:53:17 10° ESE visible
18 Oct 4.6 18:49:29 10° SSW 18:54:11 37° W 18:58:57 10° NNW visible
19 Oct 3.5 18:12:09 10° S 18:17:13 66° WSW 18:22:18 10° NNW visible
19 Oct 6.0 19:54:24 10° WSW 19:57:16 15° W 20:00:09 10° NW visible
20 Oct 5.8 06:11:49 10° NE 06:15:57 24° E 06:20:03 10° SE visible
20 Oct 3.0 17:35:20 10° SSE 17:40:24 74° ENE 17:45:30 10° NNW visible
20 Oct 5.3 19:15:45 10° SW 19:19:58 26° W 19:24:13 10° NNW visible
21 Oct 6.2 05:35:58 10° NE 05:38:37 14° E 05:41:16 10° ESE visible
21 Oct 4.3 18:37:59 10° S 18:42:50 44° W 18:47:44 10° NNW visible
22 Oct 3.2 18:00:49 10° SSE 18:05:55 77° WSW 18:11:03 10° NNW visible
22 Oct 5.8 19:42:26 10° SW 19:45:49 18° W 19:49:13 10° NW visible
23 Oct 5.9 06:00:43 10° NE 06:04:33 21° E 06:08:20 10° SE visible
23 Oct 3.0 17:24:07 10° SSE 17:29:09 64° ENE 17:34:12 10° NNW visible
23 Oct 5.0 19:04:07 10° SSW 19:08:35 30° W 19:13:04 10° NNW visible
24 Oct 6.4 05:25:20 10° ENE 05:27:10 12° ENE 05:28:59 10° E visible
24 Oct 3.9 18:26:33 10° S 18:31:31 52° W 18:36:30 10° NNW visible
24 Oct 6.2 20:10:00 10° W 20:11:47 12° WNW 20:13:35 10° WNW visible
25 Oct 5.3 06:25:52 10° NNE 06:30:21 30° E 06:34:49 10° SSE visible
25 Oct 3.0 17:49:32 10° SSE 17:54:38 89° W 17:59:46 10° NNW visible
25 Oct 5.6 19:30:36 10° SW 19:34:24 21° W 19:38:12 10° NW visible
26 Oct 6.0 05:49:41 10° NE 05:53:06 18° E 05:56:31 10° SE visible
26 Oct 3.1 17:12:58 10° SE 17:17:54 54° ENE 17:22:54 10° NNW visible
26 Oct 4.7 18:52:33 10° SSW 18:57:12 35° W 19:01:53 10° NNW visible
